[[{"header":{"parameterUnit":"m.s-1","parameterCategory":1,"la1":30.2991,"la2":30.254,"lo1":-89.0895,"lo2":-89.0444,"dy":0.0017,"dx":0.0017,"nx":28,"ny":28,"refTime":"2024-03-21T03:00:00:Z","depth":0,"parameterNumber":2,"parameterNumberName":"U-component_of_WINDS"},"data":[0,0,0,0,0,0,0,0,0,0,0,0,0,0,0,0,0,0,0,0,0,0,0,0,0,0,0,0,0,0,0,0,0,0,0,0,0,0,0,0,0,0,0,0,0,0,0,0,0,0,0,0,0,0,0,0,0,0,-2.5496,-2.5496,0,-2.5544,-2.5545,-2.5545,-2.5511,-2.551,-2.5508,-2.5507,-2.5557,-2.556,-2.5563,0,0,0,0,0,0,0,0,0,0,0,0,0,-2.5375,-2.5377,-2.5496,-2.5496,-2.5497,-2.5544,-2.5545,-2.5545,-2.5512,-2.551,-2.5508,-2.5506,-2.5557,-2.556,-2.5563,0,0,0,0,0,0,0,0,0,0,0,0,0,-2.5426,-2.5378,-2.5496,-2.5486,-2.5485,-2.5544,-2.5545,-2.5546,-2.5512,-2.551,-2.5508,-2.5505,-2.5555,-2.5559,-2.5564,-2.5635,0,0,-2.5576,-2.5578,0,0,0,0,0,0,0,0,-2.5423,-2.543,-2.5487,-2.5487,-2.5486,-2.5519,-2.5521,-2.5576,-2.5513,-2.5502,-2.5507,-2.5504,-2.5547,-2.5551,-2.5566,-2.5637,-2.5639,-2.5577,-2.5579,-2.5581,-2.5582,0,0,0,0,0,0,0,-2.542,-2.5428,-2.5515,-2.5488,-2.5487,-2.5479,-2.5484,-2.5531,-2.5537,-2.5503,-2.55,-2.5507,-2.5546,-2.5562,-2.5566,-2.564,-2.5576,-2.558,-2.5583,-2.5584,-2.5773,-2.5775,0,0,0,0,0,0,-2.5417,-2.5425,-2.5513,-2.5516,-2.5448,-2.5483,-2.5489,-2.5511,-2.5536,-2.5538,-2.5508,-2.5505,-2.5556,-2.5562,-2.5568,-2.5653,-2.5581,-2.5585,-2.5587,-2.577,-2.5773,-2.5776,0,0,0,0,0,0,-2.5414,-2.5425,-2.5511,-2.547,-2.5481,-2.5488,-2.5513,-2.5513,-2.5529,-2.554,-2.5541,-2.5523,-2.5554,-2.5562,-2.5618,-2.5655,-2.5587,-2.559,-2.5767,-2.5771,-2.5775,-2.5824,0,0,0,0,0,0,-2.5411,-2.5424,-2.5451,-2.5471,-2.5483,-2.5561,-2.5516,-2.5516,-2.5536,-2.5531,-2.5554,-2.5556,-2.5553,-2.5612,-2.5623,-2.5659,-2.5594,-2.5764,-2.5769,-2.5773,-2.5819,-2.5829,-2.5838,0,0,0,0,0,-2.5407,-2.5464,-2.5453,-2.5464,-2.5517,-2.5563,-2.557,-2.5565,-2.5539,-2.5566,-2.5574,-2.5555,-2.5649,-2.5618,-2.563,-2.5668,-2.5762,-2.5768,-2.5773,-2.5815,-2.5827,-2.5837,0,0,0,0,0,0,-2.5448,-2.5466,-2.5454,-2.5519,-2.554,-2.5557,-2.5591,-2.5578,-2.5607,-2.5601,-2.5594,-2.56,-2.5659,-2.5669,-2.5635,-2.5738,-2.5701,-2.5709,-2.5729,-2.5741,-2.575,-2.5746,-2.5597,0,0,0,0,0,-2.5465,-2.55,-2.5514,-2.557,-2.5581,-2.5585,-2.5604,-2.5599,-2.562,-2.5629,-2.564,-2.5662,-2.5696,-2.5719,-2.5751,-2.582,-2.5825,-2.5852,-2.5861,-2.5869,-2.5876,-2.5914,-2.5926,-2.5795,-2.5794,-2.5794,0,0,-2.55,-2.5514,-2.5537,-2.5579,-2.5594,-2.5631,-2.5592,-2.5633,-2.5661,-2.5635,-2.5689,-2.5698,-2.5722,-2.5785,-2.5813,-2.5795,-2.5913,-2.5876,-2.5882,-2.5885,-2.5921,-2.5933,-2.5944,-2.5798,-2.5798,-2.5797,0,0,-2.5582,-2.5596,-2.5644,-2.566,-2.5684,-2.5686,-2.5698,-2.5717,-2.5722,-2.5776,-2.5757,-2.579,-2.5849,-2.5867,-2.5884,-2.5973,-2.5957,-2.5984,-2.6032,-2.6068,-2.6079,-2.6088,-2.612,-2.6132,-2.5991,-2.5991,-2.5991,0,-2.5623,-2.5678,-2.5671,-2.5714,-2.5733,-2.571,-2.5759,-2.5775,-2.5808,-2.5822,-2.5801,-2.5875,-2.5889,-2.5956,-2.5978,-2.5992,-2.6006,-2.5981,-2.6078,-2.6087,-2.6095,-2.6126,-2.6138,-2.5994,-2.5994,-2.5993,-2.5993,0,-2.5727,-2.5765,-2.5801,-2.5833,-2.5856,-2.5902,-2.5902,-2.5926,-2.5919,-2.5923,-2.5978,-2.5995,-2.603,-2.6045,-2.6038,-2.6111,-2.61,-2.6078,-2.6041,-2.6111,-2.614,-2.6151,-2.5998,-2.5997,-2.5996,-2.5996,0,0,-2.5837,-2.5864,-2.5878,-2.5892,-2.5916,-2.5946,-2.5991,-2.6025,-2.6046,-2.607,-2.6107,-2.6158,-2.6138,-2.6157,-2.6152,-2.6184,-2.6254,-2.6159,-2.6159,-2.6176,-2.6336,-2.6352,-2.6366,-2.6244,-2.6246,-2.6248,-2.6334,0,-2.5922,-2.5999,-2.5994,-2.6067,-2.6102,-2.6082,-2.612,-2.614,-2.6145,-2.6176,-2.6182,-2.6218,-2.6189,-2.6201,-2.6231,-2.6239,-2.6286,-2.6233,-2.6279,-2.6281,-2.6274,-2.6381,-2.6398,-2.6479,-2.6345,-2.6347,-2.6349,0,-2.6031,-2.6057,-2.6134,-2.6152,-2.6167,-2.6202,-2.6233,-2.6263,-2.6284,-2.6286,-2.6307,-2.6296,-2.6342,-2.6303,-2.6366,-2.633,-2.6348,-2.6355,-2.6358,-2.6363,-2.6319,-2.6389,-2.6505,-2.6518,-2.6366,-2.6365,-2.6364,0,-2.6104,-2.6159,-2.6212,-2.6225,-2.6248,-2.6273,-2.6284,-2.6303,-2.6324,-2.6351,-2.6364,-2.6396,-2.6414,-2.6439,-2.6438,-2.641,-2.6502,-2.6463,-2.6505,-2.6505,-2.6525,-2.6524,-2.6647,-2.6537,-2.6536,-2.6536,-2.6536,0,-2.62,-2.6247,-2.6246,-2.6278,-2.6331,-2.6325,-2.6377,-2.6385,-2.6402,-2.6437,-2.642,-2.6453,-2.6448,-2.6481,-2.648,-2.6533,-2.6541,-2.6544,-2.6543,-2.6546,-2.6545,-2.6558,-2.6553,-2.6539,-2.6539,-2.6538,-2.6537,0,-2.6292,-2.6292,-2.6349,-2.6365,-2.637,-2.6409,-2.6423,-2.6454,-2.6458,-2.6501,-2.6511,-2.6516,-2.6554,-2.6555,-2.6598,-2.6598,-2.6662,-2.6654,-2.6655,-2.6653,-2.6695,-2.6692,-2.6831,-2.6849,-2.6727,-2.6728,-2.6729,0,-2.6353,-2.6389,-2.6409,-2.643,-2.6443,-2.6477,-2.6498,-2.6493,-2.6515,-2.6542,-2.657,-2.6606,-2.6635,-2.6696,-2.6704,-2.6737,-2.6731,-2.6778,-2.6736,-2.6738,-2.6733,-2.6731,-2.6735,-2.6786,-2.6787,-2.6788,-2.6789,0,-2.6462,-2.646,-2.649,-2.6521,-2.6546,-2.657,-2.6592,-2.6611,-2.6608,-2.6634,-2.6672,-2.6694,-2.6738,-2.6774,-2.6806,-2.6817,-2.6804,-2.6802,-2.6814,-2.6817,-2.6816,-2.6818,-2.6677,-2.6799,-2.6798,-2.6798,-2.6797,-2.6797,-2.6541,-2.6572,-2.6591,-2.6625,-2.6641,-2.6662,-2.6692,-2.6698,-2.673,-2.6764,-2.6759,-2.6802,-2.6822,-2.6863,-2.6878,-2.6911,-2.6895,-2.6912,-2.6916,-2.6921,-2.6926,-2.681,-2.6917,-2.6917,-2.6916,-2.6916,-2.6916,0,-2.6649,-2.666,-2.6691,-2.6723,-2.675,-2.6733,-2.6756,-2.678,-2.6817,-2.6837,-2.6865,-2.6909,-2.6944,-2.6955,-2.6988,-2.7013,-2.7008,-2.7022,-2.7021,-2.7024,-2.6938,-2.6924,-2.7026,-2.7026,-2.7026,-2.7026,-2.7026,-2.7026,-2.6709,-2.6761,-2.6761,-2.6821,-2.6831,-2.6872,-2.6887,-2.6906,-2.6922,-2.6971,-2.7,-2.7006,-2.7022,-2.7057,-2.7088,-2.7091,-2.7104,-2.7122,-2.7122,-2.7041,-2.703,-2.7019,-2.7007,-2.7125,-2.7125,-2.7205,-2.7206,-2.7207]},{"header":{"parameterUnit":"m.s-1","parameterCategory":1,"la1":30.2991,"la2":30.254,"lo1":-89.0895,"lo2":-89.0444,"dy":0.0017,"dx":0.0017,"nx":28,"ny":28,"refTime":"2024-03-21T03:00:00:Z","depth":0,"parameterNumber":3,"parameterNumberName":"V-component_of_WINDS"},"data":[0,0,0,0,0,0,0,0,0,0,0,0,0,0,0,0,0,0,0,0,0,0,0,0,0,0,0,0,0,0,0,0,0,0,0,0,0,0,0,0,0,0,0,0,0,0,0,0,0,0,0,0,0,0,0,0,0,0,0.8574,0.8576,0,0.8822,0.8824,0.8827,0.9025,0.9026,0.9028,0.903,0.9281,0.9286,0.929,0,0,0,0,0,0,0,0,0,0,0,0,0,0.8267,0.8272,0.8573,0.8577,0.858,0.8821,0.8825,0.8828,0.9024,0.9027,0.9029,0.9031,0.9279,0.9285,0.9291,0,0,0,0,0,0,0,0,0,0,0,0,0,0.8446,0.8273,0.8573,0.8707,0.8721,0.882,0.8825,0.8829,0.9024,0.9027,0.903,0.9032,0.9277,0.9285,0.9292,0.9277,0,0,0.9314,0.9317,0,0,0,0,0,0,0,0,0.8435,0.8457,0.8684,0.8698,0.8714,0.8895,0.8809,0.8979,0.9023,0.8909,0.903,0.9034,0.915,0.9168,0.9208,0.9289,0.9299,0.9314,0.9319,0.9322,0.9324,0,0,0,0,0,0,0,0.8423,0.8447,0.8672,0.8687,0.8705,0.8754,0.8782,0.8842,0.9009,0.8919,0.8934,0.8961,0.9159,0.92,0.9215,0.9303,0.9314,0.9321,0.9325,0.9328,0.9385,0.9382,0,0,0,0,0,0,0.839,0.8436,0.8664,0.8679,0.8579,0.8757,0.8789,0.8834,0.901,0.9039,0.8958,0.8969,0.9187,0.9206,0.9225,0.9219,0.9322,0.9329,0.9333,0.9388,0.9384,0.9381,0,0,0,0,0,0,0.8383,0.8409,0.8654,0.8562,0.8597,0.8759,0.8808,0.8837,0.8879,0.9039,0.907,0.897,0.919,0.9214,0.9263,0.9231,0.9332,0.9339,0.9391,0.9386,0.9383,0.9207,0,0,0,0,0,0,0.8373,0.8405,0.8401,0.856,0.8601,0.8688,0.8806,0.884,0.8892,0.8908,0.9058,0.9086,0.9194,0.9251,0.927,0.9243,0.9344,0.9395,0.9389,0.9384,0.9217,0.9198,0.9181,0,0,0,0,0,0.8362,0.8342,0.84,0.8427,0.86,0.8686,0.8709,0.8835,0.8888,0.8886,0.8989,0.9081,0.9231,0.9254,0.9277,0.9251,0.9397,0.9391,0.9384,0.9225,0.9202,0.9182,0,0,0,0,0,0,0.8174,0.8365,0.8432,0.8463,0.8557,0.8719,0.872,0.8806,0.8886,0.8898,0.9049,0.9082,0.9113,0.9188,0.921,0.9247,0.9326,0.9324,0.9197,0.9176,0.9159,0.914,0.935,0,0,0,0,0,0.8136,0.8191,0.8355,0.8366,0.841,0.8556,0.8598,0.8687,0.879,0.883,0.8936,0.9031,0.9101,0.9143,0.9215,0.9229,0.9264,0.9222,0.9205,0.9189,0.9185,0.9198,0.9181,0.936,0.936,0.936,0,0,0.8059,0.817,0.8195,0.8331,0.8414,0.8466,0.8588,0.8638,0.8678,0.8837,0.889,0.8971,0.9087,0.9118,0.9137,0.9181,0.9144,0.9181,0.9168,0.9173,0.919,0.9173,0.9157,0.9356,0.9357,0.9357,0,0,0.7944,0.8034,0.8054,0.8135,0.8259,0.8357,0.8361,0.8511,0.8571,0.8626,0.8746,0.8796,0.8911,0.8989,0.9044,0.8959,0.9046,0.8978,0.8885,0.8895,0.8881,0.887,0.8839,0.8826,0.8974,0.8973,0.8973,0,0.7832,0.7917,0.8052,0.8096,0.8152,0.8299,0.832,0.8391,0.8532,0.8567,0.8614,0.8763,0.8851,0.8902,0.8881,0.8921,0.893,0.8961,0.8873,0.8862,0.8853,0.8825,0.8813,0.8964,0.8965,0.8966,0.8967,0,0.7772,0.7829,0.783,0.7963,0.8019,0.805,0.819,0.823,0.8314,0.8406,0.8459,0.8571,0.8669,0.8688,0.8769,0.875,0.8773,0.8844,0.8927,0.8825,0.8801,0.8792,0.8951,0.8954,0.8957,0.8959,0,0,0.7547,0.7755,0.7753,0.7815,0.7964,0.8009,0.8047,0.8143,0.8174,0.8267,0.8301,0.8396,0.8463,0.8524,0.8616,0.8625,0.855,0.8696,0.8701,0.8664,0.8535,0.848,0.8465,0.8609,0.8608,0.8607,0.8525,0,0.7456,0.7533,0.7656,0.7692,0.7746,0.7886,0.7919,0.8012,0.8099,0.8157,0.8253,0.8317,0.8401,0.8439,0.8454,0.8556,0.8526,0.8563,0.8642,0.8643,0.8608,0.8453,0.8396,0.8313,0.8517,0.8515,0.8514,0,0.736,0.7445,0.7486,0.7631,0.7658,0.7685,0.7783,0.7836,0.7945,0.8008,0.8076,0.8176,0.8223,0.8298,0.8363,0.8385,0.8425,0.848,0.848,0.8491,0.8572,0.846,0.829,0.8276,0.8501,0.8502,0.8503,0,0.7191,0.7315,0.7357,0.7406,0.7575,0.759,0.7661,0.7773,0.7823,0.7908,0.7942,0.8031,0.8079,0.8145,0.8266,0.831,0.8317,0.8403,0.837,0.8366,0.8365,0.8363,0.8197,0.839,0.8391,0.8391,0.8391,0,0.7076,0.7096,0.7283,0.7308,0.7334,0.7474,0.7496,0.758,0.7678,0.7721,0.7848,0.7886,0.8044,0.8099,0.8195,0.8233,0.8255,0.8306,0.833,0.8294,0.8287,0.8321,0.833,0.8388,0.8388,0.8389,0.839,0,0.6892,0.7018,0.7072,0.7227,0.7267,0.7279,0.7412,0.7441,0.7535,0.7588,0.7609,0.7756,0.7828,0.7956,0.8064,0.8128,0.8147,0.8191,0.8111,0.8126,0.8085,0.8087,0.7935,0.7922,0.8122,0.812,0.8119,0,0.681,0.6829,0.6986,0.7025,0.7091,0.7151,0.7203,0.7342,0.739,0.7515,0.7529,0.7611,0.7684,0.7792,0.7909,0.7992,0.8038,0.7979,0.8051,0.8013,0.8036,0.8033,0.8035,0.7962,0.7959,0.7957,0.7955,0,0.6651,0.6713,0.6783,0.6874,0.6932,0.7011,0.7096,0.7119,0.7278,0.7325,0.7401,0.7457,0.7568,0.7648,0.7748,0.7821,0.7913,0.7931,0.7928,0.789,0.7843,0.7867,0.8065,0.7934,0.7936,0.7938,0.7939,0.794,0.6516,0.6539,0.6653,0.6727,0.6805,0.6882,0.6916,0.7015,0.7081,0.7182,0.726,0.7329,0.7438,0.7582,0.7649,0.7704,0.7748,0.7743,0.7741,0.7738,0.7723,0.7834,0.7723,0.7724,0.7725,0.7725,0.7726,0,0.6364,0.6445,0.6511,0.6626,0.6683,0.6766,0.6864,0.6906,0.6966,0.7059,0.7129,0.7215,0.7293,0.7415,0.7502,0.7523,0.7567,0.7541,0.754,0.7555,0.768,0.7674,0.7503,0.7503,0.7503,0.7503,0.7503,0.7503,0.6292,0.6334,0.6409,0.6491,0.6572,0.6642,0.669,0.6761,0.6836,0.6927,0.6992,0.7071,0.7176,0.7272,0.7346,0.7381,0.7406,0.7366,0.7412,0.7526,0.7547,0.7566,0.7562,0.737,0.737,0.7284,0.7283,0.7282]}]]